Weather in Khoromnoye

Russia / Bryansk Oblast     52°04′07″N   32°02′06″E
temp.,
°C
wind,
m/s
gust,
m/s
humid.,
%
clouds,
%
prec.,
mm/h
press.,
hPa
HPBL,
m
19 september, sun
sun1900:00+11sse119698 0.1 100812
03:00+10ese4797100 0.6 1008315
06:00+10ese1296100 0.1 1007113
09:00+11n019295 0.1 1007284
12:00+13w128582 0.0 1008455
15:00+14w117493 0.1 1008542
18:00+14ne1182100 0.3 100712
21:00+12e1296100 2.1 100767
20 september, mon
mon2000:00+11e2598100 3.7 1006228
03:00+10s1697100 12.6 1005439
06:00+9wsw2497100 2.4 1005300
09:00+9sw4698100 5.6 1004363
12:00+9ssw4697100 4.2 1005442
15:00+9se2397100 5.3 1005353
18:00+9nnw3596100 0.4 1005415
21:00+8wnw4697100 0.9 1007385
21 september, tue
tue2100:00+7wnw5897100 1.3 1007437
03:00+7w5896100 2.4 1008426
06:00+7w4897100 1.5 1007460
09:00+7nw5897100 2.5 1008441
12:00+7nw5895100 1.5 1010532
15:00+5nw61095100 2.1 1011614
18:00+4nw6997100 0.8 1012676
21:00+4nw61097100 1.3 1013601
22 september, wed
wed2200:00+3nw61097100 1.2 1014515
03:00+3nw61097100 2.0 1013521
06:00+4nw51097100 0.1 1013535
09:00+4nw5997100 0.2 1014643
12:00+4nw4897100 0.3 1014564
15:00+4nw4797100 0.4 1014491
18:00+5nw4696100 0.1 1014453
21:00+5nw3697100 0.1 1014348
23 september, thu
thu2300:00+5nw3697100 0.0 1013298
03:00+5nw3597100 0.1 1013282
06:00+5nw2598100 0.2 1012325
09:00+6wnw2497100 0.3 1012315
12:00+6wnw3493100 0.1 1012421
15:00+8wsw3486100 0.2 1012750
18:00+6sw3692100 0.3 1011402
21:00+6sw3695100 0.4 1011434